,,,PA_Meas_PMT16A,,PR_Meas_QMR101_102,,RH_Meas_QMH101,,SR_Meas_QMS101,,TA_Meas_QMH101,,GenWind,,GenWind,
date,time,status,PA,status,PR,status,RH,status,SR,status,TA,status,DirAvg,status,SpdAvg,
2009-10-02, 00:00:04,VALID,999.961,VALID,0,VALID,91.7004,VALID,0,VALID,25.6707,VALID,120,VALID,0.889063,
2009-10-02, 00:01:04,VALID,999.954,VALID,0,VALID,91.7462,VALID,0,VALID,25.6921,VALID,122,VALID,0.971094,
2009-10-02, 00:02:04,VALID,999.924,VALID,0,VALID,91.6088,VALID,0,VALID,25.7116,VALID,124,VALID,0.895703,
2009-10-02, 00:03:04,VALID,999.917,VALID,0,VALID,91.6317,VALID,0,VALID,25.6921,VALID,131,VALID,0.854297,
2009-10-02, 00:04:04,VALID,999.89,VALID,0,VALID,91.5478,VALID,0,VALID,25.6707,VALID,143,VALID,0.849219,
2009-10-02, 00:05:04,VALID,999.858,VALID,0,VALID,91.4868,VALID,0,VALID,25.6707,VALID,143,VALID,0.656641,
2009-10-02, 00:06:04,VALID,999.886,VALID,0,VALID,91.4791,VALID,0,VALID,25.6707,VALID,143,VALID,0.765625,
2009-10-02, 00:07:04,VALID,999.85,VALID,0,VALID,91.2884,VALID,0,VALID,25.7116,VALID,144,VALID,0.302734,
2009-10-02, 00:08:04,VALID,999.821,VALID,0,VALID,91.1434,VALID,0,VALID,25.7116,VALID,144,VALID,0.195703,
2009-10-02, 00:09:04,VALID,999.814,VALID,0,VALID,91.1053,VALID,0,VALID,25.6902,VALID,149,VALID,0.191406,
2009-10-02, 00:10:04,VALID,999.779,VALID,0,VALID,90.9527,VALID,0,VALID,25.6707,VALID,340,VALID,0.714453,
2009-10-02, 00:11:04,VALID,999.786,VALID,0,VALID,90.884,VALID,0,VALID,25.6336,VALID,340,VALID,0.870703,
2009-10-02, 00:12:04,VALID,999.782,VALID,0,VALID,91.1358,VALID,0,VALID,25.5945,VALID,340,VALID,0.646484,
2009-10-02, 00:13:04,VALID,999.736,VALID,0,VALID,91.0595,VALID,0,VALID,25.5555,VALID,340,VALID,0.50625,
2009-10-02, 00:14:04,VALID,999.727,VALID,0,VALID,91.1053,VALID,0,VALID,25.4969,VALID,340,VALID,0.400781,
2009-10-02, 00:15:04,VALID,999.669,VALID,0,VALID,91.0137,VALID,0,VALID,25.4364,VALID,340,VALID,0.209375,
2009-10-02, 00:16:04,VALID,999.622,VALID,0,VALID,90.9527,VALID,0,VALID,25.3797,VALID,340,VALID,0.550391,
2009-10-02, 00:17:04,VALID,999.641,VALID,0,VALID,91.2655,VALID,0,VALID,25.3602,VALID,22,VALID,0.700781,
2009-10-02, 00:18:04,VALID,999.646,VALID,0,VALID,91.4257,VALID,0,VALID,25.3212,VALID,22,VALID,0.705469,
2009-10-02, 00:19:04,VALID,999.647,VALID,0,VALID,91.5478,VALID,0,VALID,25.3212,VALID,42,VALID,0.542578,
2009-10-02, 00:20:04,VALID,999.62,VALID,0,VALID,91.3266,VALID,0,VALID,25.2626,VALID,55,VALID,0.438672,
2009-10-02, 00:21:04,VALID,999.639,VALID,0,VALID,91.4334,VALID,0,VALID,25.2021,VALID,76,VALID,0.543359,
2009-10-02, 00:22:04,VALID,999.625,VALID,0,VALID,91.7157,VALID,0,VALID,25.2236,VALID,76,VALID,0.503516,
2009-10-02, 00:23:04,VALID,999.63,VALID,0,VALID,91.9064,VALID,0,VALID,25.2431,VALID,76,VALID,0.280078,
2009-10-02, 00:24:04,VALID,999.612,VALID,0,VALID,91.9369,VALID,0,VALID,25.2607,VALID,76,VALID,0.334375,
2009-10-02, 00:25:04,VALID,999.588,VALID,0,VALID,91.9064,VALID,0,VALID,25.2412,VALID,87,VALID,0.485938,
2009-10-02, 00:26:04,VALID,999.55,VALID,0,VALID,92.0361,VALID,0,VALID,25.2821,VALID,116,VALID,0.544531,
2009-10-02, 00:27:04,VALID,999.527,VALID,0,VALID,92.12,VALID,0,VALID,25.2802,VALID,146,VALID,0.809375,
2009-10-02, 00:28:04,VALID,999.513,VALID,0,VALID,91.8759,VALID,0,VALID,25.3017,VALID,110,VALID,0.952734,
2009-10-02, 00:29:04,VALID,999.486,VALID,0,VALID,91.8911,VALID,0,VALID,25.2821,VALID,103,VALID,0.933203,
2009-10-02, 00:30:04,VALID,999.472,VALID,0,VALID,91.8148,VALID,0,VALID,25.2431,VALID,103,VALID,0.795703,
2009-10-02, 00:31:04,VALID,999.503,VALID,0,VALID,91.8301,VALID,0,VALID,25.204,VALID,103,VALID,0.349609,
2009-10-02, 00:32:04,VALID,999.56,VALID,0,VALID,91.8377,VALID,0,VALID,25.1631,VALID,103,VALID,0.00351562,
2009-10-02, 00:33:04,VALID,999.575,VALID,0,VALID,91.9751,VALID,0,VALID,25.1436,VALID,297,VALID,0.704297,
2009-10-02, 00:34:04,VALID,999.609,VALID,0,VALID,92.0819,VALID,0,VALID,25.1436,VALID,297,VALID,0.543359,
2009-10-02, 00:35:04,VALID,999.584,VALID,0,VALID,92.1048,VALID,0,VALID,25.1631,VALID,297,VALID,0.303906,
2009-10-02, 00:36:04,VALID,999.593,VALID,0,VALID,92.1353,VALID,0,VALID,25.1631,VALID,297,VALID,0.0464844,
2009-10-02, 00:37:04,VALID,999.536,VALID,0,VALID,92.1277,VALID,0,VALID,25.1845,VALID,297,VALID,0,
2009-10-02, 00:38:04,VALID,999.449,VALID,0,VALID,92.1429,VALID,0,VALID,25.1845,VALID,297,VALID,0,
2009-10-02, 00:39:04,VALID,999.434,VALID,0,VALID,92.1506,VALID,0,VALID,25.1631,VALID,297,VALID,0,
2009-10-02, 00:40:04,VALID,999.406,VALID,0,VALID,92.1353,VALID,0,VALID,25.1631,VALID,297,VALID,0,
2009-10-02, 00:41:04,VALID,999.377,VALID,0,VALID,92.2421,VALID,0,VALID,25.1826,VALID,285,VALID,0.223828,
2009-10-02, 00:42:04,VALID,999.365,VALID,0,VALID,92.3794,VALID,0,VALID,25.2412,VALID,267,VALID,0.227734,
2009-10-02, 00:43:04,VALID,999.344,VALID,0,VALID,92.4328,VALID,0,VALID,25.2802,VALID,267,VALID,0.0015625,
2009-10-02, 00:44:04,VALID,999.323,VALID,0,VALID,92.41,VALID,0,VALID,25.2997,VALID,267,VALID,0,
2009-10-02, 00:45:04,VALID,999.281,VALID,0,VALID,92.3947,VALID,0,VALID,25.3407,VALID,267,VALID,0.174219,
2009-10-02, 00:46:04,VALID,999.286,VALID,0,VALID,92.4557,VALID,0,VALID,25.3797,VALID,267,VALID,0.577734,
2009-10-02, 00:47:04,VALID,999.267,VALID,0,VALID,92.4634,VALID,0,VALID,25.3778,VALID,272,VALID,0.634766,
2009-10-02, 00:48:04,VALID,999.286,VALID,0,VALID,92.4252,VALID,0.112286,VALID,25.4169,VALID,279,VALID,0.530859,
2009-10-02, 00:49:04,VALID,999.277,VALID,0,VALID,92.3489,VALID,0,VALID,25.4364,VALID,279,VALID,0.390234,
2009-10-02, 00:50:04,VALID,999.25,VALID,0,VALID,92.3031,VALID,0,VALID,25.4364,VALID,279,VALID,0.211328,
2009-10-02, 00:51:04,VALID,999.269,VALID,0,VALID,92.265,VALID,0,VALID,25.4559,VALID,279,VALID,0.394531,
2009-10-02, 00:52:04,VALID,999.281,VALID,0,VALID,92.1811,VALID,0,VALID,25.4969,VALID,284,VALID,0.617969,
2009-10-02, 00:53:04,VALID,999.281,VALID,0,VALID,92.1506,VALID,0,VALID,25.4969,VALID,299,VALID,0.433594,
2009-10-02, 00:54:04,VALID,999.256,VALID,0,VALID,92.0514,VALID,0,VALID,25.4774,VALID,301,VALID,0.294141,
2009-10-02, 00:55:04,VALID,999.271,VALID,0,VALID,91.8911,VALID,0,VALID,25.4559,VALID,301,VALID,0.423828,
2009-10-02, 00:56:04,VALID,999.22,VALID,0,VALID,91.7614,VALID,0.112286,VALID,25.4169,VALID,301,VALID,0.494141,
2009-10-02, 00:57:04,VALID,999.193,VALID,0,VALID,91.8225,VALID,0,VALID,25.3993,VALID,301,VALID,0.398438,
2009-10-02, 00:58:04,VALID,999.213,VALID,0,VALID,91.8911,VALID,0,VALID,25.3797,VALID,301,VALID,0.302734,
2009-10-02, 00:59:04,VALID,999.212,VALID,0,VALID,91.7843,VALID,0.112286,VALID,25.3388,VALID,301,VALID,0.294531,
2009-10-02, 01:00:04,VALID,999.204,VALID,0,VALID,91.853,VALID,0,VALID,25.2997,VALID,301,VALID,0.350781,
2009-10-02, 01:01:04,VALID,999.208,VALID,0,VALID,91.8225,VALID,0,VALID,25.2431,VALID,301,VALID,0.412891,
2009-10-02, 01:02:04,VALID,999.196,VALID,0,VALID,92.1963,VALID,0,VALID,25.2607,VALID,301,VALID,0.347266,
2009-10-02, 01:03:04,VALID,999.192,VALID,0,VALID,92.3184,VALID,0,VALID,25.2802,VALID,301,VALID,0.329688,
2009-10-02, 01:04:04,VALID,999.223,VALID,0,VALID,92.3794,VALID,0,VALID,25.3193,VALID,301,VALID,0.152344,
2009-10-02, 01:05:04,VALID,999.219,VALID,0,VALID,92.2726,VALID,0.112286,VALID,25.2783,VALID,301,VALID,0.311719,
2009-10-02, 01:06:04,VALID,999.244,VALID,0,VALID,92.3413,VALID,0,VALID,25.3193,VALID,301,VALID,0.395312,
2009-10-02, 01:07:04,VALID,999.276,VALID,0,VALID,92.3489,VALID,0,VALID,25.3193,VALID,301,VALID,0.356641,
2009-10-02, 01:08:04,VALID,999.279,VALID,0,VALID,92.3031,VALID,0,VALID,25.2997,VALID,301,VALID,0.34375,
2009-10-02, 01:09:04,VALID,999.287,VALID,0,VALID,92.3031,VALID,0,VALID,25.2802,VALID,301,VALID,0.287891,
2009-10-02, 01:10:04,VALID,999.292,VALID,0,VALID,92.2574,VALID,0,VALID,25.2802,VALID,301,VALID,0.128125,
2009-10-02, 01:11:04,VALID,999.29,VALID,0,VALID,92.2803,VALID,0,VALID,25.2412,VALID,301,VALID,0.0542969,
2009-10-02, 01:12:04,VALID,999.232,VALID,0,VALID,92.3413,VALID,0.112286,VALID,25.2412,VALID,301,VALID,0.253516,
2009-10-02, 01:13:04,VALID,999.198,VALID,0,VALID,92.3566,VALID,0,VALID,25.2412,VALID,301,VALID,0.145703,
2009-10-02, 01:14:04,VALID,999.218,VALID,0,VALID,92.2192,VALID,0.112286,VALID,25.2021,VALID,301,VALID,0,
2009-10-02, 01:15:04,VALID,999.175,VALID,0,VALID,92.2192,VALID,0,VALID,25.1241,VALID,301,VALID,0.151953,
2009-10-02, 01:16:04,VALID,999.158,VALID,0,VALID,92.2268,VALID,0,VALID,25.1455,VALID,301,VALID,0.358984,
2009-10-02, 01:17:04,VALID,999.138,VALID,0,VALID,92.4328,VALID,0,VALID,25.1045,VALID,301,VALID,0.363281,
2009-10-02, 01:18:04,VALID,999.096,VALID,0,VALID,92.5473,VALID,0,VALID,25.1436,VALID,301,VALID,0.467578,
2009-10-02, 01:19:04,VALID,999.09,VALID,0,VALID,92.5473,VALID,0,VALID,25.1241,VALID,76,VALID,0.7875,
2009-10-02, 01:20:04,VALID,999.102,VALID,0,VALID,92.4557,VALID,0,VALID,25.085,VALID,76,VALID,0.788672,
2009-10-02, 01:21:04,VALID,999.078,VALID,0,VALID,92.6312,VALID,0,VALID,25.126,VALID,80,VALID,0.784375,
2009-10-02, 01:22:04,VALID,999.059,VALID,0,VALID,92.6312,VALID,0,VALID,25.126,VALID,101,VALID,0.822266,
2009-10-02, 01:23:04,VALID,999.061,VALID,0,VALID,92.471,VALID,0,VALID,25.085,VALID,104,VALID,0.814062,
2009-10-02, 01:24:04,VALID,999.053,VALID,0,VALID,92.3337,VALID,0,VALID,25.0479,VALID,110,VALID,0.887109,
2009-10-02, 01:25:04,VALID,999.037,VALID,0,VALID,92.2803,VALID,0,VALID,24.9874,VALID,110,VALID,0.874609,
2009-10-02, 01:26:04,VALID,999.052,VALID,0,VALID,92.1506,VALID,0,VALID,24.9484,VALID,110,VALID,0.994531,
2009-10-02, 01:27:04,VALID,999.01,VALID,0,VALID,92.204,VALID,0,VALID,24.9093,VALID,110,VALID,0.929297,
2009-10-02, 01:28:04,VALID,998.996,VALID,0,VALID,92.4328,VALID,0,VALID,24.9289,VALID,110,VALID,0.973828,
2009-10-02, 01:29:04,VALID,998.995,VALID,0,VALID,92.4252,VALID,0,VALID,24.9679,VALID,110,VALID,0.968359,
2009-10-02, 01:30:04,VALID,998.961,VALID,0,VALID,92.3031,VALID,0,VALID,24.9484,VALID,110,VALID,0.855078,
2009-10-02, 01:31:04,VALID,998.956,VALID,0,VALID,92.1963,VALID,0,VALID,24.9484,VALID,110,VALID,0.63125,
2009-10-02, 01:32:04,VALID,998.958,VALID,0,VALID,92.1506,VALID,0,VALID,24.9112,VALID,110,VALID,0.485547,
2009-10-02, 01:33:04,VALID,998.927,VALID,0,VALID,92.0971,VALID,0,VALID,24.8703,VALID,110,VALID,0.336719,
2009-10-02, 01:34:04,VALID,998.926,VALID,0,VALID,92.0971,VALID,0,VALID,24.8527,VALID,110,VALID,0.25625,
2009-10-02, 01:35:04,VALID,998.861,VALID,0,VALID,92.1734,VALID,0,VALID,24.8527,VALID,110,VALID,0.396875,
2009-10-02, 01:36:04,VALID,998.852,VALID,0,VALID,92.326,VALID,0,VALID,24.8313,VALID,110,VALID,0.492969,
2009-10-02, 01:37:04,VALID,998.833,VALID,0,VALID,92.3947,VALID,0,VALID,24.8313,VALID,110,VALID,0.624609,
2009-10-02, 01:38:04,VALID,998.836,VALID,0,VALID,92.3718,VALID,0,VALID,24.8313,VALID,110,VALID,0.498437,
2009-10-02, 01:39:04,VALID,998.871,VALID,0,VALID,92.2955,VALID,0,VALID,24.8313,VALID,110,VALID,0.373828,
2009-10-02, 01:40:04,VALID,998.871,VALID,0,VALID,92.3031,VALID,0,VALID,24.7941,VALID,110,VALID,0.204688,
2009-10-02, 01:41:04,VALID,998.9,VALID,0,VALID,92.2497,VALID,0,VALID,24.7746,VALID,110,VALID,0.151953,
2009-10-02, 01:42:04,VALID,998.843,VALID,0,VALID,92.2421,VALID,0,VALID,24.7356,VALID,110,VALID,0.009375,
2009-10-02, 01:43:04,VALID,998.893,VALID,0,VALID,92.2497,VALID,0,VALID,24.7356,VALID,110,VALID,0.158984,
2009-10-02, 01:44:04,VALID,998.863,VALID,0,VALID,92.3337,VALID,0,VALID,24.7142,VALID,110,VALID,0.0796875,
2009-10-02, 01:45:04,VALID,998.846,VALID,0,VALID,92.3489,VALID,0,VALID,24.6946,VALID,110,VALID,0,
2009-10-02, 01:46:04,VALID,998.858,VALID,0,VALID,92.3871,VALID,0,VALID,24.7142,VALID,110,VALID,0,
2009-10-02, 01:47:04,VALID,998.856,VALID,0,VALID,92.4863,VALID,0,VALID,24.7337,VALID,110,VALID,0,
2009-10-02, 01:48:04,VALID,998.883,VALID,0,VALID,92.5473,VALID,0,VALID,24.7532,VALID,110,VALID,0,
2009-10-02, 01:49:04,VALID,998.91,VALID,0,VALID,92.6617,VALID,0,VALID,24.8117,VALID,110,VALID,0,
2009-10-02, 01:50:04,VALID,998.91,VALID,0,VALID,92.6083,VALID,0,VALID,24.8117,VALID,110,VALID,0.121875,
2009-10-02, 01:51:04,VALID,998.928,VALID,0,VALID,92.5702,VALID,0,VALID,24.7922,VALID,110,VALID,0.228906,
2009-10-02, 01:52:04,VALID,998.932,VALID,0,VALID,92.7075,VALID,0.112286,VALID,24.8117,VALID,110,VALID,0.144922,
2009-10-02, 01:53:04,VALID,998.958,VALID,0,VALID,92.7457,VALID,0,VALID,24.8313,VALID,110,VALID,0.314063,
2009-10-02, 01:54:04,VALID,998.953,VALID,0,VALID,92.7914,VALID,0.112286,VALID,24.8294,VALID,110,VALID,0.346484,
2009-10-02, 01:55:04,VALID,998.957,VALID,0,VALID,92.8525,VALID,0,VALID,24.8703,VALID,110,VALID,0.369141,
2009-10-02, 01:56:04,VALID,998.949,VALID,0,VALID,92.883,VALID,0,VALID,24.8898,VALID,110,VALID,0.338281,
2009-10-02, 01:57:04,VALID,998.916,VALID,0,VALID,92.883,VALID,0,VALID,24.8898,VALID,110,VALID,0.317969,
2009-10-02, 01:58:04,VALID,998.928,VALID,0,VALID,92.8677,VALID,0,VALID,24.9093,VALID,110,VALID,0.2875,
2009-10-02, 01:59:04,VALID,998.9,VALID,0,VALID,92.8525,VALID,0,VALID,24.9093,VALID,110,VALID,0.249219,
2009-10-02, 02:00:04,VALID,998.898,VALID,0,VALID,92.8525,VALID,0,VALID,24.9093,VALID,110,VALID,0.253125,
2009-10-02, 02:01:04,VALID,998.872,VALID,0,VALID,92.8601,VALID,0,VALID,24.9093,VALID,110,VALID,0.345703,
2009-10-02, 02:02:04,VALID,998.836,VALID,0,VALID,92.883,VALID,0,VALID,24.9289,VALID,110,VALID,0.432813,
2009-10-02, 02:03:04,VALID,998.842,VALID,0,VALID,92.8067,VALID,0,VALID,24.9093,VALID,125,VALID,0.836719,
2009-10-02, 02:04:04,VALID,998.821,VALID,0,VALID,92.8906,VALID,0,VALID,24.9289,VALID,128,VALID,0.656641,
2009-10-02, 02:05:04,VALID,998.81,VALID,0,VALID,92.822,VALID,0,VALID,24.9093,VALID,128,VALID,0.878516,
2009-10-02, 02:06:04,VALID,998.795,VALID,0,VALID,92.5549,VALID,0,VALID,24.8703,VALID,135,VALID,0.988281,
2009-10-02, 02:07:04,VALID,998.79,VALID,0,VALID,92.5473,VALID,0,VALID,24.8313,VALID,136,VALID,0.795313,
2009-10-02, 02:08:04,VALID,998.763,VALID,0,VALID,92.6007,VALID,0,VALID,24.8508,VALID,150,VALID,0.658594,
2009-10-02, 02:09:04,VALID,998.771,VALID,0,VALID,92.6312,VALID,0,VALID,24.8508,VALID,158,VALID,0.778906,
2009-10-02, 02:10:04,VALID,998.755,VALID,0,VALID,92.6007,VALID,0,VALID,24.8508,VALID,165,VALID,0.766016,
2009-10-02, 02:11:04,VALID,998.739,VALID,0,VALID,92.5854,VALID,0,VALID,24.8508,VALID,179,VALID,0.570703,
2009-10-02, 02:12:04,VALID,998.713,VALID,0,VALID,92.5244,VALID,0,VALID,24.8703,VALID,179,VALID,0.381641,
2009-10-02, 02:13:04,VALID,998.711,VALID,0,VALID,92.5015,VALID,0,VALID,24.8898,VALID,179,VALID,0.332422,
2009-10-02, 02:14:04,VALID,998.688,VALID,0,VALID,92.3566,VALID,0,VALID,24.8703,VALID,179,VALID,0.333203,
2009-10-02, 02:15:04,VALID,998.714,VALID,0,VALID,92.2803,VALID,0,VALID,24.8703,VALID,179,VALID,0.189844,
2009-10-02, 02:16:04,VALID,998.703,VALID,0,VALID,92.2268,VALID,0,VALID,24.8703,VALID,179,VALID,0.0550781,
2009-10-02, 02:17:04,VALID,998.685,VALID,0,VALID,92.1124,VALID,0,VALID,24.8508,VALID,179,VALID,0,
2009-10-02, 02:18:04,VALID,998.684,VALID,0,VALID,91.7843,VALID,0,VALID,24.7727,VALID,179,VALID,0.315234,
2009-10-02, 02:19:04,VALID,998.679,VALID,0,VALID,91.8606,VALID,0,VALID,24.7337,VALID,179,VALID,0.334766,
2009-10-02, 02:20:04,VALID,998.656,VALID,0,VALID,92.0514,VALID,0,VALID,24.7337,VALID,179,VALID,0.124219,
2009-10-02, 02:21:04,VALID,998.642,VALID,0,VALID,92.0895,VALID,0,VALID,24.6946,VALID,179,VALID,0.208203,
2009-10-02, 02:22:04,VALID,998.684,VALID,0,VALID,92.0666,VALID,0,VALID,24.6751,VALID,179,VALID,0.375391,
2009-10-02, 02:23:04,VALID,998.691,VALID,0,VALID,91.8835,VALID,0,VALID,24.6166,VALID,179,VALID,0.369922,
2009-10-02, 02:24:04,VALID,998.664,VALID,0,VALID,91.9598,VALID,0.112286,VALID,24.558,VALID,179,VALID,0.294922,
2009-10-02, 02:25:04,VALID,998.676,VALID,0,VALID,92.0285,VALID,0,VALID,24.519,VALID,179,VALID,0.283594,
2009-10-02, 02:26:04,VALID,998.687,VALID,0,VALID,92.1963,VALID,0,VALID,24.519,VALID,179,VALID,0.224609,
2009-10-02, 02:27:04,VALID,998.7,VALID,0,VALID,92.2192,VALID,0,VALID,24.5013,VALID,179,VALID,0.0417969,
2009-10-02, 02:28:04,VALID,998.703,VALID,0,VALID,92.2345,VALID,0,VALID,24.4604,VALID,179,VALID,0,
2009-10-02, 02:29:04,VALID,998.758,VALID,0,VALID,92.3184,VALID,0,VALID,24.4428,VALID,179,VALID,0,
2009-10-02, 02:30:04,VALID,998.744,VALID,0,VALID,92.3794,VALID,0,VALID,24.4428,VALID,179,VALID,0,
2009-10-02, 02:31:04,VALID,998.749,VALID,0,VALID,92.5778,VALID,0,VALID,24.4428,VALID,179,VALID,0,
2009-10-02, 02:32:04,VALID,998.758,VALID,0,VALID,92.6846,VALID,0,VALID,24.4604,VALID,179,VALID,0.288281,
2009-10-02, 02:33:04,VALID,998.759,VALID,0,VALID,92.6236,VALID,0,VALID,24.4818,VALID,179,VALID,0.378125,
2009-10-02, 02:34:04,VALID,998.771,VALID,0,VALID,92.5931,VALID,0,VALID,24.4623,VALID,178,VALID,0.407813,
2009-10-02, 02:35:04,VALID,998.794,VALID,0,VALID,92.7609,VALID,0,VALID,24.5013,VALID,178,VALID,0.380859,
2009-10-02, 02:36:04,VALID,998.788,VALID,0,VALID,92.7457,VALID,0,VALID,24.5013,VALID,165,VALID,0.532031,
2009-10-02, 02:37:04,VALID,998.776,VALID,0,VALID,92.7609,VALID,0,VALID,24.5209,VALID,165,VALID,0.48125,
2009-10-02, 02:38:04,VALID,998.767,VALID,0,VALID,92.7304,VALID,0,VALID,24.5209,VALID,165,VALID,0.523828,
2009-10-02, 02:39:04,VALID,998.776,VALID,0,VALID,92.7228,VALID,0,VALID,24.5013,VALID,165,VALID,0.544922,
2009-10-02, 02:40:04,VALID,998.781,VALID,0,VALID,92.6236,VALID,0,VALID,24.4818,VALID,164,VALID,0.475,
2009-10-02, 02:41:04,VALID,998.781,VALID,0,VALID,92.6465,VALID,0,VALID,24.4818,VALID,130,VALID,0.569531,
2009-10-02, 02:42:04,VALID,998.811,VALID,0,VALID,92.8067,VALID,0,VALID,24.4818,VALID,108,VALID,0.634375,
2009-10-02, 02:43:04,VALID,998.813,VALID,0,VALID,92.7914,VALID,0,VALID,24.5013,VALID,104,VALID,0.470703,
2009-10-02, 02:44:04,VALID,998.827,VALID,0,VALID,92.7533,VALID,0,VALID,24.5209,VALID,104,VALID,0.420703,
2009-10-02, 02:45:04,VALID,998.843,VALID,0,VALID,92.6846,VALID,0,VALID,24.5013,VALID,104,VALID,0.591797,
2009-10-02, 02:46:04,VALID,998.848,VALID,0,VALID,92.6312,VALID,0,VALID,24.4604,VALID,104,VALID,0.531641,
2009-10-02, 02:47:04,VALID,998.821,VALID,0,VALID,92.5931,VALID,0,VALID,24.4409,VALID,104,VALID,0.59375,
2009-10-02, 02:48:04,VALID,998.847,VALID,0,VALID,92.6083,VALID,0,VALID,24.4233,VALID,91,VALID,0.598047,
2009-10-02, 02:49:04,VALID,998.844,VALID,0,VALID,92.5397,VALID,0,VALID,24.4037,VALID,88,VALID,0.564844,
2009-10-02, 02:50:04,VALID,998.854,VALID,0,VALID,92.532,VALID,0,VALID,24.3842,VALID,88,VALID,0.264062,
2009-10-02, 02:51:04,VALID,998.831,VALID,0,VALID,92.6007,VALID,0,VALID,24.3842,VALID,88,VALID,0.212109,
2009-10-02, 02:52:04,VALID,998.848,VALID,0,VALID,92.5778,VALID,0,VALID,24.3629,VALID,88,VALID,0,
2009-10-02, 02:53:04,VALID,998.851,VALID,0,VALID,92.5473,VALID,0,VALID,24.3647,VALID,88,VALID,0,
2009-10-02, 02:54:04,VALID,998.836,VALID,0,VALID,92.4634,VALID,0,VALID,24.3452,VALID,90,VALID,0.162109,
2009-10-02, 02:55:04,VALID,998.818,VALID,0,VALID,92.5244,VALID,0,VALID,24.3257,VALID,90,VALID,0.139844,
2009-10-02, 02:56:04,VALID,998.777,VALID,0,VALID,92.6617,VALID,0,VALID,24.3043,VALID,90,VALID,0.278516,
2009-10-02, 02:57:04,VALID,998.768,VALID,0,VALID,92.7457,VALID,0,VALID,24.3257,VALID,100,VALID,0.408594,
2009-10-02, 02:58:04,VALID,998.755,VALID,0,VALID,92.677,VALID,0,VALID,24.3452,VALID,100,VALID,0.329688,
2009-10-02, 02:59:04,VALID,998.753,VALID,0,VALID,92.6388,VALID,0,VALID,24.3452,VALID,100,VALID,0.346094,
2009-10-02, 03:00:04,VALID,998.729,VALID,0,VALID,92.6694,VALID,0,VALID,24.3452,VALID,100,VALID,0.274219,
2009-10-02, 03:01:04,VALID,998.741,VALID,0,VALID,92.5931,VALID,0,VALID,24.3257,VALID,100,VALID,0.175781,
2009-10-02, 03:02:04,VALID,998.758,VALID,0,VALID,92.532,VALID,0,VALID,24.3062,VALID,99,VALID,0,
2009-10-02, 03:03:04,VALID,998.769,VALID,0,VALID,92.4786,VALID,0,VALID,24.2866,VALID,100,VALID,0,
2009-10-02, 03:04:04,VALID,998.73,VALID,0,VALID,92.3566,VALID,0,VALID,24.2476,VALID,105,VALID,0.326953,
2009-10-02, 03:05:04,VALID,998.738,VALID,0,VALID,92.2803,VALID,0,VALID,24.2086,VALID,130,VALID,0.496484,
2009-10-02, 03:06:04,VALID,998.758,VALID,0,VALID,92.3108,VALID,0,VALID,24.2104,VALID,130,VALID,0.634766,
2009-10-02, 03:07:04,VALID,998.769,VALID,0,VALID,92.2421,VALID,0,VALID,24.1287,VALID,130,VALID,0.550781,
2009-10-02, 03:08:04,VALID,998.785,VALID,0,VALID,92.1734,VALID,0,VALID,24.15,VALID,130,VALID,0.305469,
2009-10-02, 03:09:04,VALID,998.78,VALID,0,VALID,92.0819,VALID,0,VALID,24.1305,VALID,130,VALID,0.0910156,
2009-10-02, 03:10:04,VALID,998.775,VALID,0,VALID,92.059,VALID,0,VALID,24.0915,VALID,130,VALID,0,
2009-10-02, 03:11:04,VALID,998.809,VALID,0,VALID,92.1124,VALID,0,VALID,24.0915,VALID,130,VALID,0,
2009-10-02, 03:12:04,VALID,998.812,VALID,0,VALID,92.0132,VALID,0,VALID,24.072,VALID,130,VALID,0,
2009-10-02, 03:13:04,VALID,998.817,VALID,0,VALID,92.0361,VALID,0,VALID,24.0311,VALID,130,VALID,0.0949219,
2009-10-02, 03:14:04,VALID,998.824,VALID,0,VALID,92.1811,VALID,0,VALID,24.0329,VALID,127,VALID,0.299219,
2009-10-02, 03:15:04,VALID,998.859,VALID,0,VALID,92.2192,VALID,0,VALID,24.0329,VALID,127,VALID,0.118359,
2009-10-02, 03:16:04,VALID,998.862,VALID,0,VALID,92.3718,VALID,0,VALID,24.0525,VALID,127,VALID,0.123828,
2009-10-02, 03:17:04,VALID,998.851,VALID,0,VALID,92.2192,VALID,0,VALID,24.072,VALID,127,VALID,0.158203,
2009-10-02, 03:18:04,VALID,998.837,VALID,0,VALID,92.1887,VALID,0,VALID,24.072,VALID,127,VALID,0,
2009-10-02, 03:19:04,VALID,998.847,VALID,0,VALID,92.1277,VALID,0,VALID,24.0525,VALID,127,VALID,0.150781,
2009-10-02, 03:20:04,VALID,998.848,VALID,0,VALID,92.1124,VALID,0,VALID,24.0329,VALID,112,VALID,0.882031,
2009-10-02, 03:21:04,VALID,998.862,VALID,0,VALID,92.0132,VALID,0,VALID,24.0525,VALID,113,VALID,0.676172,
2009-10-02, 03:22:04,VALID,998.868,VALID,0,VALID,91.9598,VALID,0,VALID,24.0525,VALID,94,VALID,0.807813,
2009-10-02, 03:23:04,VALID,998.839,VALID,0,VALID,91.9751,VALID,0,VALID,24.072,VALID,98,VALID,0.713281,
2009-10-02, 03:24:04,VALID,998.818,VALID,0,VALID,91.708,VALID,0,VALID,24.0915,VALID,93,VALID,0.453125,
2009-10-02, 03:25:04,VALID,998.852,VALID,0,VALID,91.4639,VALID,0,VALID,24.072,VALID,79,VALID,0.599609,
2009-10-02, 03:26:04,VALID,998.853,VALID,0,VALID,91.2579,VALID,0,VALID,24.0311,VALID,80,VALID,0.551562,
2009-10-02, 03:27:04,VALID,998.896,VALID,0,VALID,91.3723,VALID,0,VALID,24.0311,VALID,80,VALID,0.639844,
2009-10-02, 03:28:04,VALID,998.851,VALID,0,VALID,91.3189,VALID,0,VALID,24.0311,VALID,80,VALID,0.373437,
2009-10-02, 03:29:04,VALID,998.861,VALID,0,VALID,91.2884,VALID,0,VALID,24.0116,VALID,102,VALID,0.704687,
2009-10-02, 03:30:04,VALID,998.867,VALID,0,VALID,91.3418,VALID,0,VALID,24.0311,VALID,111,VALID,0.641406,
2009-10-02, 03:31:04,VALID,998.858,VALID,0,VALID,91.3189,VALID,0,VALID,24.072,VALID,120,VALID,0.828516,
2009-10-02, 03:32:04,VALID,998.881,VALID,0,VALID,91.38,VALID,0,VALID,24.111,VALID,128,VALID,1.30664,
2009-10-02, 03:33:04,VALID,998.914,VALID,0,VALID,91.235,VALID,0,VALID,24.1482,VALID,125,VALID,1.05547,
2009-10-02, 03:34:04,VALID,998.906,VALID,0,VALID,91.0366,VALID,0,VALID,24.2281,VALID,124,VALID,1.17383,
2009-10-02, 03:35:04,VALID,998.938,VALID,0,VALID,90.6551,VALID,0,VALID,24.2476,VALID,112,VALID,1.04922,
2009-10-02, 03:36:04,VALID,998.928,VALID,0,VALID,90.35,VALID,0,VALID,24.2866,VALID,107,VALID,0.683594,
2009-10-02, 03:37:04,VALID,998.96,VALID,0,VALID,90.0906,VALID,0,VALID,24.3062,VALID,104,VALID,0.605859,
2009-10-02, 03:38:04,VALID,998.929,VALID,0,VALID,89.9761,VALID,0,VALID,24.3257,VALID,88,VALID,0.505078,
2009-10-02, 03:39:04,VALID,998.927,VALID,0,VALID,89.9227,VALID,0,VALID,24.3062,VALID,83,VALID,0.719531,
2009-10-02, 03:40:04,VALID,998.938,VALID,0,VALID,89.7472,VALID,0,VALID,24.2671,VALID,81,VALID,0.799609,
2009-10-02, 03:41:04,VALID,998.909,VALID,0,VALID,89.7091,VALID,0,VALID,24.2476,VALID,78,VALID,0.624609,
2009-10-02, 03:42:04,VALID,998.893,VALID,0,VALID,89.8311,VALID,0,VALID,24.2281,VALID,77,VALID,0.596094,
2009-10-02, 03:43:04,VALID,998.867,VALID,0,VALID,90.411,VALID,0,VALID,24.2281,VALID,59,VALID,0.537891,
2009-10-02, 03:44:04,VALID,998.868,VALID,0,VALID,90.4186,VALID,0,VALID,24.2476,VALID,48,VALID,0.663672,
2009-10-02, 03:45:04,VALID,998.853,VALID,0,VALID,90.0982,VALID,0,VALID,24.1891,VALID,48,VALID,0.583984,